Location: Kikino
(54.4440°N, 112.0940°W)
Time: 09:27:57
(UTC+00:00)

TIGRISAT - Pass Details

Date: 29 November 2023
Orbit: 597 x 675 km, 97.7° (Epoch: 22 February)

Event Time Altitude Azimuth Distance (km) Brightness Sun altitude
Exits shadow 01:02:27 - 13° (NNE) 2,754 ? -15.3°
Reaches altitude 10° 01:04:03 10° 12° (NNE) 2,099 ? -15.5°
Maximum altitude 01:08:37 78° 288° (WNW) 675 ? -16.2°
Drops below altitude 10° 01:13:05 10° 202° (SSW) 2,036 ? -16.8°
Sets 01:15:15 0° 201° (SSW) 2,928 ? -17.1°
